Location: Newark
(41.9000°N, 12.4833°E)
Time: 05:52:29
(UTC+00:00)

EO-79 - Pass Details

Date: 21 May 2019
Orbit: 591 x 611 km, 97.9° (Epoch: 18 June)

Event Time Altitude Azimuth Distance (km) Brightness Sun altitude
Rises 23:12:09 0° 20° (NNE) 2,841 ? -27.8°
Reaches altitude 10° 23:14:26 10° 28° (NNE) 1,933 ? -27.8°
Enters shadow 23:17:10 32° 58° (ENE) 1,027 ? -27.8°
